Skip Page Navigation
NASA JPL Caltech
NASA Logo - Jet Propulsion Laboratory + View the NASA Portal
+ Near-Earth Object (NEO) Program
Search JPL
JPL Home Earth Solar System Stars & Galaxies Technology
JPL Solar System Dynamics
BODIES ORBITS EPHEMERIDES TOOLS PHYSICAL DATA DISCOVERY FAQ SITE MAP
JPL Small-Body Database Browser
Search: [ help ]  
(2007 HA)
Classification: Aten [NEO, PHA]          SPK-ID: 3373980
Ephemeris | Orbit Diagram | Orbital Elements | Physical Parameters | Close-Approach Data ]

[ hide orbit diagram ]
Orbit Diagram
Note: Make sure you have Java enabled on your browser to see the applet. This applet is provided as a 3D orbit visualization tool. The applet was implemented using 2-body methods, and hence should not be used for determining accurate long-term trajectories (over several years or decades) or planetary encounter circumstances. For accurate long-term ephemerides, please instead use our Horizons system.
Orbit Viewer

Additional Notes: the orbits shown in the applet are color coded. The planets are white lines, and the asteroid/comet is a blue line. The bright white line indicates the portion of the orbit that is above the ecliptic plane, and the darker portion is below the ecliptic plane. Likewise for the asteroid/comet orbit, the light blue indicates the portion above the ecliptic plane, and the dark blue the portion below the ecliptic plane.

Orbit Viewer applet originally written and kindly provided by Osamu Ajiki (AstroArts), and further modified by Ron Baalke (JPL).


Orbital Elements at Epoch 2456400.5 (2013-Apr-18.0) TDB
Reference: JPL 24 (heliocentric ecliptic J2000)
 Element Value Uncertainty (1-sigma)   Units 
e .4702514075152397 5.3414e-07  
a .8926042112150295 2.4564e-08 AU
q .4728558245371315 4.7602e-07 AU
i 32.98008248620123 7.8896e-05 deg
node 205.823166634236 1.3422e-06 deg
peri 133.140322283625 1.5154e-05 deg
M 321.2158050003467 0.00011065 deg
tp 2456433.684792393518
(2013-May-21.18479239)
9.5905e-05 JED
period 308.0256084153204
0.84
1.2715e-05
3.481e-08
d
yr
n 1.168733995371583 4.8244e-08 deg/d
Q 1.312352597892928 3.6115e-08 AU
  Orbit Determination Parameters
   # obs. used (total)      446  
   data-arc span      1855 days (5.08 yr)  
   first obs. used      2007-04-16  
   last obs. used      2012-05-14  
   planetary ephem.      DE405  
   SB-pert. ephem.      SB405-CPV-2  
   condition code      1  
   fit RMS      .86448  
   data source      ORB  
   producer      Otto Matic  
   solution date      2012-May-14 00:52:28  

Additional Information
 Earth MOID = .0152488 AU 
 T_jup = 6.443 
[ show covariance matrix ]

Ephemeris | Orbit Diagram | Orbital Elements | Physical Parameters | Close-Approach Data ]

Physical Parameter Table
Parameter Symbol Value Units Sigma Reference Notes
absolute magnitude H 20.361 mag .45892 24 autocmod 2.5b
rotation period rot_per 4.65 h n/a Asteroid Lightcurve DataBase (Rev. 2013-May-01) Result based on less than full coverage, so that the period may be wrong by 30 percent or so.
Published Reference List:
[Behrend, R. (2007) Observatoire de Geneve web site, http://obswww.unige.ch/~behrend/page_cou.html]

[ show close-approach data ]
Ephemeris | Orbit Diagram | Orbital Elements | Physical Parameters | Close-Approach Data ]
ABOUT SSD CREDITS/AWARDS PRIVACY/COPYRIGHT GLOSSARY LINKS
FirstGov 2013-May-19 18:03 UT
(server date/time)  
NASA Home Page
Site Manager:   Donald K. Yeomans
Webmaster  Alan B. Chamberlin